�������l�o���
Date,Time,MP-1(��Sv/h),MP-2(��Sv/h),MP-3(��Sv/h),MP-4(��Sv/h),MP-5(��Sv/h),MP-6(��Sv/h),MP-7(��Sv/h),MP-8(��Sv/h),����,����(m/s),���J
2020/03/03,00:00,0.670,0.954,0.636,1.179,0.839,0.391,0.684,0.652,�k��,3.4,��
2020/03/03,00:10,0.669,0.952,0.635,1.178,0.839,0.392,0.685,0.652,�k�k��,3.3,��
2020/03/03,00:20,0.671,0.954,0.637,1.177,0.840,0.393,0.685,0.652,�k��,3.7,��
2020/03/03,00:30,0.670,0.955,0.637,1.178,0.839,0.392,0.684,0.654,�k�k��,4.5,��
2020/03/03,00:40,0.671,0.954,0.637,1.177,0.842,0.393,0.685,0.651,�k�k��,4.7,��
2020/03/03,00:50,0.669,0.953,0.635,1.177,0.841,0.391,0.687,0.653,�k,4.9,��
2020/03/03,01:00,0.672,0.955,0.634,1.179,0.842,0.393,0.686,0.652,�k�k��,4.4,��
2020/03/03,01:10,0.671,0.954,0.635,1.177,0.841,0.392,0.685,0.653,���k��,2.6,��
2020/03/03,01:20,0.672,0.954,0.637,1.180,0.842,0.393,0.684,0.652,��,1.2,��
2020/03/03,01:30,0.672,0.956,0.636,1.180,0.841,0.393,0.684,0.652,�쐼,1.7,��
2020/03/03,01:40,0.673,0.956,0.636,1.177,0.842,0.392,0.684,0.654,��,3.2,��
2020/03/03,01:50,0.672,0.955,0.637,1.179,0.842,0.393,0.685,0.654,���k��,3.0,��
2020/03/03,02:00,0.673,0.957,0.635,1.179,0.843,0.393,0.686,0.653,��,1.1,��
2020/03/03,02:10,0.672,0.956,0.636,1.177,0.841,0.392,0.685,0.654,��,6.2,��
2020/03/03,02:20,0.672,0.957,0.637,1.178,0.841,0.393,0.685,0.653,���쐼,5.7,��
2020/03/03,02:30,0.673,0.954,0.639,1.181,0.843,0.393,0.687,0.653,���k��,5.1,��
2020/03/03,02:40,0.673,0.956,0.636,1.180,0.843,0.393,0.686,0.653,�k��,6.3,��
2020/03/03,02:50,0.673,0.956,0.637,1.180,0.842,0.393,0.686,0.653,���k��,7.2,��
2020/03/03,03:00,0.673,0.959,0.638,1.180,0.842,0.393,0.687,0.654,���k��,7.0,��
2020/03/03,03:10,0.674,0.955,0.638,1.181,0.842,0.393,0.688,0.653,���k��,6.7,��
2020/03/03,03:20,0.673,0.957,0.639,1.182,0.842,0.393,0.685,0.654,���k��,6.4,��
2020/03/03,03:30,0.672,0.957,0.638,1.182,0.842,0.393,0.686,0.655,���k��,6.4,��
2020/03/03,03:40,0.673,0.957,0.636,1.185,0.843,0.394,0.687,0.653,���k��,6.7,��
2020/03/03,03:50,0.674,0.959,0.639,1.185,0.843,0.394,0.687,0.655,�k��,4.1,��
2020/03/03,04:00,0.674,0.957,0.636,1.183,0.842,0.393,0.686,0.654,�k�k��,2.9,��
2020/03/03,04:10,0.673,0.956,0.640,1.184,0.842,0.393,0.685,0.654,�k�k��,3.4,��
2020/03/03,04:20,0.673,0.958,0.637,1.183,0.842,0.393,0.688,0.654,�k��,4.3,��
2020/03/03,04:30,0.673,0.959,0.640,1.184,0.843,0.393,0.688,0.654,�k��,3.9,��
2020/03/03,04:40,0.672,0.959,0.635,1.182,0.844,0.394,0.686,0.655,�k��,4.3,��
2020/03/03,04:50,0.674,0.959,0.638,1.182,0.843,0.392,0.686,0.655,���k��,3.6,��
2020/03/03,05:00,0.673,0.959,0.637,1.182,0.843,0.394,0.687,0.654,���k��,3.9,��
2020/03/03,05:10,0.673,0.958,0.638,1.181,0.842,0.394,0.688,0.654,���k��,3.6,��
2020/03/03,05:20,0.675,0.960,0.640,1.182,0.843,0.394,0.686,0.655,���k��,1.7,��
2020/03/03,05:30,0.674,0.958,0.637,1.185,0.842,0.393,0.687,0.655,�k�k��,0.6,��
2020/03/03,05:40,0.672,0.958,0.637,1.184,0.844,0.394,0.686,0.653,�k�k��,1.4,��
2020/03/03,05:50,0.671,0.957,0.639,1.183,0.844,0.392,0.687,0.654,���k��,0.6,��
2020/03/03,06:00,0.673,0.959,0.639,1.185,0.845,0.394,0.688,0.653,�k�k��,1.2,��
2020/03/03,06:10,0.673,0.959,0.638,1.183,0.842,0.392,0.686,0.654,�k�k��,1.7,��
2020/03/03,06:20,0.674,0.958,0.638,1.183,0.843,0.393,0.687,0.654,���k��,2.6,��
2020/03/03,06:30,0.674,0.960,0.637,1.183,0.844,0.395,0.686,0.654,���k��,4.2,��
2020/03/03,06:40,0.674,0.958,0.636,1.186,0.842,0.393,0.687,0.654,���쐼,3.5,��
2020/03/03,06:50,0.673,0.959,0.636,1.183,0.844,0.392,0.687,0.654,��,2.9,��
2020/03/03,07:00,0.675,0.958,0.637,1.186,0.845,0.394,0.685,0.654,���k��,2.6,��
2020/03/03,07:10,0.674,0.956,0.639,1.184,0.843,0.393,0.687,0.653,�k��,3.0,��
2020/03/03,07:20,0.674,0.957,0.637,1.185,0.843,0.392,0.686,0.653,�k��,2.8,��
2020/03/03,07:30,0.673,0.958,0.637,1.186,0.844,0.394,0.688,0.655,���k��,3.5,��
2020/03/03,07:40,0.675,0.959,0.637,1.187,0.843,0.393,0.688,0.654,���k��,3.1,��
2020/03/03,07:50,0.674,0.961,0.637,1.186,0.844,0.394,0.688,0.654,��,2.5,��
2020/03/03,08:00,0.675,0.959,0.637,1.183,0.845,0.393,0.687,0.654,���k��,3.3,��
2020/03/03,08:10,0.676,0.961,0.638,1.186,0.845,0.394,0.689,0.654,�k��,4.5,��
2020/03/03,08:20,0.675,0.963,0.638,1.187,0.844,0.395,0.689,0.655,�k��,4.9,��
2020/03/03,08:30,0.676,0.960,0.638,1.184,0.844,0.394,0.689,0.654,���k��,4.6,��
2020/03/03,08:40,0.674,0.960,0.638,1.186,0.846,0.394,0.691,0.656,���k��,5.3,��
2020/03/03,08:50,0.676,0.961,0.638,1.185,0.846,0.394,0.688,0.656,���k��,4.9,��
2020/03/03,09:00,0.676,0.957,0.639,1.187,0.849,0.394,0.688,0.654,�k��,3.5,��
2020/03/03,09:10,0.678,0.958,0.639,1.188,0.846,0.394,0.688,0.656,�k��,3.2,��
2020/03/03,09:20,0.680,0.958,0.647,1.189,0.848,0.395,0.689,0.658,�k��,1.7,��
2020/03/03,09:30,0.681,0.958,0.649,1.188,0.848,0.396,0.688,0.658,�k��,4.0,��
2020/03/03,09:40,0.679,0.962,0.648,1.187,0.849,0.394,0.688,0.655,�k�k��,2.5,��
2020/03/03,09:50,0.680,0.959,0.648,1.188,0.850,0.395,0.688,0.657,�k�k��,3.7,��
2020/03/03,10:00,0.681,0.961,0.650,1.187,0.849,0.394,0.688,0.656,��,2.2,��
2020/03/03,10:10,0.680,0.959,0.651,1.189,0.851,0.396,0.688,0.657,�k��,2.0,��
2020/03/03,10:20,0.680,0.959,0.651,1.187,0.851,0.394,0.690,0.656,�k��,2.8,��
2020/03/03,10:30,0.679,0.961,0.653,1.191,0.850,0.395,0.689,0.656,�k��,1.7,��
2020/03/03,10:40,0.680,0.960,0.653,1.189,0.852,0.394,0.688,0.654,-,CALM,��
2020/03/03,10:50,0.679,0.962,0.654,1.187,0.853,0.394,0.689,0.655,�k��,4.9,��
2020/03/03,11:00,0.681,0.964,0.653,1.191,0.852,0.395,0.689,0.655,�k��,5.4,��
2020/03/03,11:10,0.680,0.966,0.656,1.192,0.854,0.394,0.689,0.655,���k��,4.7,��
2020/03/03,11:20,0.681,0.965,0.654,1.190,0.854,0.394,0.690,0.656,�k��,3.9,��
2020/03/03,11:30,0.682,0.965,0.654,1.192,0.854,0.396,0.690,0.655,���k��,5.6,��
2020/03/03,11:40,0.683,0.965,0.655,1.192,0.854,0.395,0.689,0.654,��,4.8,��
2020/03/03,11:50,0.681,0.967,0.654,1.192,0.855,0.393,0.691,0.656,���k��,5.0,��
2020/03/03,12:00,0.681,0.969,0.656,1.191,0.849,0.394,0.690,0.655,�k��,2.0,��
2020/03/03,12:10,0.681,0.969,0.657,1.192,0.852,0.394,0.689,0.656,��쓌,2.0,��
2020/03/03,12:20,0.681,0.971,0.656,1.194,0.854,0.394,0.692,0.656,���쓌,0.9,��
2020/03/03,12:30,0.682,0.969,0.657,1.193,0.855,0.397,0.690,0.656,�k�k��,0.6,��
2020/03/03,12:40,0.683,0.968,0.655,1.192,0.856,0.396,0.690,0.657,���k��,2.8,��
2020/03/03,12:50,0.681,0.969,0.657,1.196,0.856,0.395,0.692,0.656,�k�k��,5.4,��
2020/03/03,13:00,0.683,0.971,0.658,1.195,0.856,0.397,0.692,0.657,�k�k��,4.3,��
2020/03/03,13:10,0.681,0.970,0.656,1.195,0.856,0.396,0.691,0.655,���쓌,1.2,��
2020/03/03,13:20,0.681,0.971,0.654,1.193,0.858,0.396,0.692,0.656,���쓌,1.4,��
2020/03/03,13:30,0.683,0.970,0.656,1.194,0.857,0.396,0.691,0.656,�k,5.8,��
2020/03/03,13:40,0.682,0.971,0.655,1.193,0.856,0.396,0.691,0.655,�k,5.4,��
2020/03/03,13:50,0.682,0.970,0.657,1.196,0.857,0.396,0.691,0.655,�k�k��,5.5,��
2020/03/03,14:00,0.683,0.969,0.658,1.192,0.857,0.396,0.692,0.657,�k�k��,5.7,��
2020/03/03,14:10,0.684,0.970,0.657,1.194,0.855,0.397,0.692,0.656,�k�k��,6.4,��
2020/03/03,14:20,0.684,0.970,0.659,1.193,0.856,0.397,0.691,0.657,�k�k��,6.9,��
2020/03/03,14:30,0.684,0.972,0.657,1.196,0.856,0.398,0.690,0.657,�k�k��,7.5,��
2020/03/03,14:40,0.683,0.968,0.658,1.196,0.858,0.396,0.693,0.657,�k�k��,6.5,��
2020/03/03,14:50,0.685,0.971,0.658,1.196,0.859,0.395,0.690,0.657,�k�k��,6.3,��
2020/03/03,15:00,0.684,0.973,0.658,1.197,0.859,0.397,0.692,0.656,�k�k��,7.4,��
2020/03/03,15:10,0.683,0.972,0.657,1.197,0.859,0.396,0.692,0.655,�k�k��,6.8,��
2020/03/03,15:20,0.684,0.974,0.658,1.197,0.857,0.399,0.690,0.656,�k�k��,4.5,��
2020/03/03,15:30,0.685,0.976,0.657,1.197,0.859,0.396,0.691,0.658,�k��,4.7,��
2020/03/03,15:40,0.686,0.976,0.658,1.196,0.857,0.394,0.689,0.657,�k�k��,6.0,��
2020/03/03,15:50,0.685,0.975,0.657,1.198,0.858,0.395,0.691,0.658,�k�k��,8.5,��
2020/03/03,16:00,0.686,0.977,0.658,1.197,0.860,0.398,0.689,0.659,�k�k��,6.2,��
2020/03/03,16:10,0.685,0.976,0.658,1.196,0.861,0.395,0.691,0.658,�k�k��,6.6,��
2020/03/03,16:20,0.685,0.978,0.659,1.197,0.862,0.395,0.692,0.658,�k�k��,6.3,��
2020/03/03,16:30,0.685,0.976,0.658,1.198,0.862,0.395,0.691,0.660,�k�k��,8.4,��
2020/03/03,16:40,0.684,0.978,0.658,1.197,0.862,0.395,0.691,0.659,�k�k��,7.3,��
2020/03/03,16:50,0.687,0.979,0.658,1.199,0.862,0.396,0.690,0.658,�k�k��,6.8,��
2020/03/03,17:00,0.685,0.978,0.660,1.199,0.860,0.394,0.691,0.659,�k�k��,6.9,��
2020/03/03,17:10,0.685,0.979,0.658,1.196,0.860,0.395,0.692,0.659,�k�k��,7.8,��
2020/03/03,17:20,0.684,0.978,0.658,1.198,0.861,0.394,0.693,0.658,�k�k��,6.1,��
2020/03/03,17:30,0.683,0.980,0.659,1.200,0.860,0.394,0.692,0.659,�k�k��,6.9,��
2020/03/03,17:40,0.684,0.979,0.658,1.199,0.861,0.394,0.692,0.659,�k�k��,5.9,��
2020/03/03,17:50,0.682,0.979,0.657,1.199,0.861,0.395,0.692,0.658,�k�k��,7.2,��
2020/03/03,18:00,0.685,0.979,0.658,1.198,0.859,0.395,0.691,0.659,�k�k��,7.1,��
2020/03/03,18:10,0.683,0.978,0.657,1.197,0.861,0.395,0.691,0.657,�k�k��,7.5,��
2020/03/03,18:20,0.685,0.980,0.659,1.198,0.858,0.394,0.692,0.658,�k�k��,7.6,��
2020/03/03,18:30,0.684,0.978,0.657,1.199,0.861,0.393,0.690,0.658,�k�k��,6.2,��
2020/03/03,18:40,0.683,0.979,0.658,1.200,0.858,0.395,0.693,0.659,�k,7.4,��
2020/03/03,18:50,0.682,0.977,0.659,1.197,0.861,0.394,0.691,0.658,�k,8.7,��
2020/03/03,19:00,0.683,0.978,0.659,1.198,0.860,0.395,0.693,0.659,�k,7.5,��
2020/03/03,19:10,0.683,0.981,0.660,1.196,0.860,0.395,0.692,0.656,�k,6.1,��
2020/03/03,19:20,0.682,0.979,0.658,1.200,0.860,0.394,0.692,0.658,�k,7.0,��
2020/03/03,19:30,0.682,0.979,0.659,1.198,0.859,0.394,0.692,0.659,�k,7.1,��
2020/03/03,19:40,0.683,0.979,0.657,1.198,0.861,0.394,0.692,0.658,�k,5.6,��
2020/03/03,19:50,0.682,0.978,0.658,1.195,0.860,0.395,0.691,0.658,�k,6.7,��
2020/03/03,20:00,0.683,0.976,0.659,1.199,0.860,0.394,0.692,0.659,�k,8.3,��
2020/03/03,20:10,0.682,0.975,0.658,1.199,0.861,0.394,0.691,0.659,�k�k��,7.8,��
2020/03/03,20:20,0.683,0.977,0.658,1.198,0.859,0.392,0.692,0.658,�k�k��,6.4,��
2020/03/03,20:30,0.681,0.976,0.657,1.199,0.861,0.394,0.692,0.657,�k��,5.9,��
2020/03/03,20:40,0.681,0.978,0.656,1.198,0.859,0.394,0.692,0.658,�k�k��,5.4,��
2020/03/03,20:50,0.682,0.978,0.657,1.199,0.860,0.393,0.692,0.659,�k��,4.4,��
2020/03/03,21:00,0.682,0.978,0.658,1.198,0.861,0.394,0.691,0.658,�k��,5.2,��
2020/03/03,21:10,0.683,0.978,0.660,1.198,0.861,0.393,0.691,0.656,�k��,4.0,��
2020/03/03,21:20,0.683,0.976,0.658,1.199,0.860,0.393,0.693,0.660,���k��,4.7,��
2020/03/03,21:30,0.682,0.975,0.657,1.199,0.861,0.393,0.692,0.658,���k��,4.3,��
2020/03/03,21:40,0.681,0.977,0.657,1.197,0.860,0.393,0.691,0.658,�k��,4.0,��
2020/03/03,21:50,0.683,0.977,0.658,1.197,0.860,0.392,0.691,0.658,�k��,4.4,��
2020/03/03,22:00,0.681,0.977,0.657,1.199,0.860,0.393,0.691,0.658,�k�k��,1.7,��
2020/03/03,22:10,0.683,0.976,0.657,1.197,0.861,0.393,0.691,0.656,�k��,1.9,��
2020/03/03,22:20,0.682,0.975,0.658,1.197,0.860,0.394,0.690,0.656,���k��,1.7,��
2020/03/03,22:30,0.682,0.976,0.655,1.197,0.861,0.394,0.691,0.659,�k��,2.0,��
2020/03/03,22:40,0.681,0.977,0.657,1.198,0.859,0.394,0.691,0.659,���k��,2.0,��
2020/03/03,22:50,0.682,0.976,0.657,1.197,0.859,0.393,0.691,0.658,�k��,2.5,��
2020/03/03,23:00,0.682,0.978,0.657,1.197,0.860,0.392,0.691,0.657,�k��,1.7,��
2020/03/03,23:10,0.681,0.976,0.658,1.198,0.861,0.393,0.692,0.658,�k��,1.4,��
2020/03/03,23:20,0.682,0.976,0.657,1.200,0.860,0.393,0.690,0.657,�k��,0.9,��
2020/03/03,23:30,0.681,0.977,0.657,1.197,0.859,0.394,0.692,0.659,���k��,0.9,��
2020/03/03,23:40,0.682,0.976,0.658,1.198,0.861,0.395,0.691,0.656,��,1.2,��
2020/03/03,23:50,0.682,0.976,0.658,1.199,0.860,0.394,0.691,0.657,���k��,1.5,��
